Location: *
(46.1006°N, 1.8394°E)
Time: 11:54:02
(UTC+00:00)

Cosmos 1741 Rocket - Pass Details

Date: 20 September 2019
Orbit: 761 x 783 km, 74.0° (Epoch: 21 October)

Event Time Altitude Azimuth Distance (km) Brightness Sun altitude
Rises 20:33:59 0° 338° (NNW) 3,282 8.1 -26.9°
Reaches altitude 10° 20:36:23 10° 339° (NNW) 2,350 7.2 -27.2°
Enters shadow 20:41:17 74° 359° (N) 816 4.1 -27.9°
